Regional Weather Roundup
Issued by NWS Charleston, SC

Current Version | Previous Version | Graphics & Text | Print | Product List | Glossary On
Versions: 1 2 3 4 5 6 7 8 9 10 11 12 13 14 15 16 17 18 19 20 21 22 23 24 25 26 27 28 29 30 31 32 33 34 35 36 37 38 39 40 41 42 43 44 45 46 47 48 49 50
046 ASUS42 KCHS 210612 RWRCHS REGIONAL WEATHER ROUNDUP NATIONAL WEATHER SERVICE CHARLESTON SC 200 AM EDT MON AUG 21 2017 NOTE: "FAIR" INDICATES FEW OR NO CLOUDS BELOW 12,000 FEET WITH NO SIGNIFICANT WEATHER AND/OR OBSTRUCTIONS TO VISIBILITY. NOT ALL STATIONS ARE QUALITY CONTROLLED. USE DATA WITH CAUTION... ESPECIALLY DEWPOINT OBSERVATIONS. SCZ027-030-031-034>040-042>050-210700- ...SOUTHEAST SOUTH CAROLINA... CITY SKY/WX TMP DP RH WIND PRES REMARKS N CHARLESTON MOCLDY 79 77 94 CALM 30.13S 6HR MIN TEMP: 79; 6HR MAX TEMP: 84; WATERFRONT PRK N/A 84 79 85 VRB3 29.98S HX 96 JOHNS ISLAND FAIR 81 79 94 CALM 30.13S PINOPOLIS N/A 81 79 94 CALM 30.07S MONCKS CORNER FAIR 75 75 100 CALM 30.13S SUMMERVILLE FAIR 77 75 94 CALM 30.14S BEAUFORT MCAS CLEAR 82 79 90 CALM 30.13S HX 92 6HR MIN TEMP: 82; 6HR MAX TEMP: 86; BEAUFORT ARPT FAIR 81 77 89 S3 30.13S HILTON HEAD IS PTCLDY 84 77 79 S5 30.14S HX 94 WALTERBORO CLOUDY 77 75 94 CALM 30.14F ALLENDALE NOT AVBL ...SOUTHERN MIDLANDS AND PEE DEE... CITY SKY/WX TMP DP RH WIND PRES REMARKS GEORGETOWN FAIR 77 75 94 CALM 30.14F KINGSTREE FAIR 73 72 94 CALM 30.14F FOG ORANGEBURG MOCLDY 76 74 93 CALM 30.14F 6HR MIN TEMP: 76; 6HR MAX TEMP: 86; BARNWELL FAIR 79 77 94 CALM 30.14F AIKEN FAIR 73 72 94 SE3 30.19R MANNING FAIR 77 73 88 MISG 30.14F COLUMBIA CLEAR 81 74 79 CALM 30.14S 6HR MIN TEMP: 80; 6HR MAX TEMP: 89; SUMTER PTCLDY 78 73 86 CALM 30.12F 6HR MIN TEMP: 78; 6HR MAX TEMP: 89; FLORENCE CLEAR 77 76 96 CALM 30.15S 6HR MIN TEMP: 77; 6HR MAX TEMP: 87; MYRTLE BEACH NOT AVBL N MYRTLE BEACH CLOUDY 79 78 97 CALM 30.13F 6HR MIN TEMP: 79; 6HR MAX TEMP: 84; $$ GAZ063-065-086>088-099>101-113>116-118-119-134>141-150-210700- ...SOUTHEAST GEORGIA... CITY SKY/WX TMP DP RH WIND PRES REMARKS SAVANNAH ARPT PTCLDY 81 77 88 CALM 30.13S 6HR MIN TEMP: 80; 6HR MAX TEMP: 85; HUNTER AAF CLEAR 81 77 88 CALM 30.10S 6HR MIN TEMP: 80; 6HR MAX TEMP: 85; 6HR PCP: TRACE; FORT STEWART CLEAR 77 75 94 CALM 30.11S 6HR MIN TEMP: 76; 6HR MAX TEMP: 80; STATESBORO PTCLDY 79 78 97 CALM 30.14R SYLVANIA MOCLDY 77 77 100 CALM 30.14F FOG CLAXTON FAIR 76 76 97 CALM 30.13S ...CSRA...CENTRAL AND FAR SOUTHEAST GEORGIA... CITY SKY/WX TMP DP RH WIND PRES REMARKS THOMSON PTCLDY 78 74 88 SW3 30.20R AUGUSTA-BUSH CLEAR 78 76 93 CALM 30.13S FOG 6HR MIN TEMP: 78; 6HR MAX TEMP: 87; 6HR PCP: TRACE; AUGUSTA-DANIEL CLEAR 80 74 81 SE5 30.15S SWAINSBORO FAIR 77 75 94 CALM 30.15S VIDALIA MOCLDY 77 73 88 CALM 30.14S EASTMAN FAIR 78 64 60 SE3 30.15F HAZLEHURST FAIR 78 68 71 CALM 30.12F ALMA PTCLDY 74 71 91 CALM 30.13S 6HR MIN TEMP: 73; 6HR MAX TEMP: 82; WAYCROSS CLEAR 74 72 91 CALM 30.12F JESUP FAIR 73 72 94 CALM 30.13S BAXLEY FAIR 73 73 100 CALM 30.13S BRUNSWICK PTCLDY 79 73 83 CALM 30.13S SAINT SIMONS MOCLDY 84 78 82 S3 30.12S HX 95 6HR MIN TEMP: 84; 6HR MAX TEMP: 85; $$ SCZ027-028-034-036>038-045-046-048>050-GAZ119-141-210700- ...LAKE AND SUPPLEMENTAL COASTAL OBSERVATIONS... STATION/POSITION TIME TEMP WIND PRES WAVE SWELL AIR SEA DIR/SP/G HT/PER HT/PER/DIR (UTC) (F) (DEG/KT/KT) (MB) (FT/S) (FT/S/D) WINYAH BAY 0445 81 CALM 1021.0 LAKE MURRAY 0520 83 180/ 6/ 8 1019.6 ACE BASIN NERRS 0445 81 CALM 1020.0 FORT PULASKI 0542 170/ 2/ 3 1020.7R SAPELO ISLAND 0500 83 180/ 6 1020.0 $$ ANZ835-935-AMZ111-154-330-350-352-354-370-450-454-472-210700- ...C-MAN AND BUOY OBSERVATIONS... STATION/POSITION TIME TEMP WIND PRES WAVE SWELL AIR SEA DIR/SP/G HT/PER HT/PER/DIR (UTC) (F) (DEG/KT/KT) (MB) (FT/S) (FT/S/D) BUOY 41004 0550 84 85 160/ 2/ 4 1019.9F 3/ 9 3/130/ 9 BUOY 41008 0550 84 85 180/ 10/ 12 1019.9R 2/ 8 2/ 90/ 8 FOLLY BEACH CMAN 0500 85 200/ 6/ 8 1021.0S CAPERS NEARSHORE 0508 83 86 190/ 6/ 10 1020.4R FRIPP NEARSHORE 0508 85 180/ 8/ 12 1020.0S STATION/POSITION TIME TEMP WIND PRES WAVE SWELL AIR SEA DIR/SP/G HT/PER HT/PER/DIR (UTC) (F) (DEG/KT/KT) (MB) (FT/S) (FT/S/D) 5E ST. MARYS GA 0530 84 N/A 2/ 9 FRYING PAN BUOY 0550 84 84 180/ 8/ 10 1020.5R 2/ 8 2/130/ 8 BUOY 41025 0550 82 85 30/ 6/ 6 1021.1F 2/ 8 2/120/ 8 CAPE LOOKOUT NC 0500 81 60/ 4/ 4 1020.9R BUOY 41002 0550 83 85 150/ 4/ 6 1020.9F 3/ 8 3/ 90/ 8 BUOY 41010 0550 81 86 100/ 6/ 8 1019.5F 2/ 8 2/100/ 8 ST AUGUSTINE FL 0600 80 83 250/ 3/ 4 1020.0F $$

USA.gov is the U.S. government's official web portal to all federal, state and local government web resources and services.